カタログに戻る

FLOCK 4BE 9

運用中科学SSO
NORAD 60514·PAYLOAD·🇺🇸 United States

打ち上げ Aug 16, 2024 から Vandenberg Space Force Base

Loading…

次のパス (今後24時間)

TLE

最新Source: CelesTrak SupGP

元期: Sep 15, 2026, 02:44 UTC

1 60514C 24149BF  26258.11440972  .00043961  00000+0  97571-3 0  2589
2 60514  97.3742 343.4052 0001867 356.4326 137.9650 15.43713169    14

AllMySatでFLOCK 4BE 9をリアルタイム追跡

Download on the App Store